Pope Field Airport, NC

8:12 PM EDT on May 24, 2017 (GMT -0400)
Pope Field Airport

Weather History for KPOB - March, 2012

Change the Weather History Date:

Monday, March 12, 2012

  Actual Average Record
Temperature  
Mean Temperature 54 °F -  
Max Temperature 72 °F 63 °F 88 °F (1990)
Min Temperature 35 °F 39 °F 28 °F (1979)
Degree Days  
Heating Degree Days 12    
Growing Degree Days 4 (Base 50)    
Moisture  
Dew Point 42 °F    
Average Humidity 70    
Maximum Humidity 93    
Minimum Humidity 39    
Precipitation  
Precipitation 0.00 in - - ()
Sea Level Pressure  
Sea Level Pressure 30.38 in    
Wind  
Wind Speed 3 mph (SSW)    
Max Wind Speed 12 mph    
Max Gust Speed 18 mph    
Visibility 10 miles    
Events      
Averages and records for this station are not official NWS values.
T = Trace of Precipitation, MM = Missing Value Source: NWS Daily Summary

Daily Weather History Graph

Daily Weather History Graph

Search for Another Location

Airport or City:

Trip Planner

Search our weather history database for the weather conditions in past years. The results will help you decide how hot, cold, wet, or windy it might be!

Date:

Astronomy

Mar. 12, 2012 Rise Set
Actual Time 7:30 AM EDT 7:21 PM EDT
Civil Twilight 7:04 AM EDT 7:46 PM EDT
Nautical Twilight 6:35 AM EDT 8:16 PM EDT
Astronomical Twilight 6:06 AM EDT 8:45 PM EDT
Moon No Moon Rise 10:03 AM EDT (3/12)
Length of Visible Light 12h 41m
Length of Day
11h 51m
Waning Gibbous, 76% of the Moon is Illuminated
Mar 12
Waning Gibbous
Mar 14
Last Quarter
Mar 22
New
Mar 30
First Quarter
Apr 6
Full

Hourly Weather History & Observations

Time (EDT) Temp. Windchill Dew Point Humidity Pressure Visibility Wind Dir Wind Speed Gust Speed Precip Events Conditions
12:55 AM 42.3 °F 39.4 °F 36.9 °F 81% 30.46 in 10.0 mi Variable 4.6 mph - N/A   Partly Cloudy
1:55 AM 37.9 °F - 33.6 °F 84% 30.45 in 10.0 mi Calm Calm - N/A   Clear
2:55 AM 37.8 °F - 34.5 °F 88% 30.43 in 10.0 mi Calm Calm - N/A   Clear
3:55 AM 37.8 °F - 34.0 °F 86% 30.43 in 10.0 mi Calm Calm - N/A   Clear
4:55 AM 36.9 °F - 34.7 °F 92% 30.43 in 10.0 mi Calm Calm - N/A   Clear
5:55 AM 36.7 °F - 34.5 °F 92% 30.43 in 10.0 mi Calm Calm - N/A   Clear
6:55 AM 36.5 °F - 33.8 °F 90% 30.42 in 10.0 mi Calm Calm - N/A   Clear
7:55 AM 35.2 °F - 33.4 °F 93% 30.42 in 10.0 mi Calm Calm - N/A   Clear
7:59 AM 35.6 °F - 33.8 °F 93% 30.42 in 10.0 mi Calm Calm - N/A   Partly Cloudy
8:10 AM 35.6 °F - 33.8 °F 93% 30.43 in 10.0 mi Calm Calm - N/A   Mostly Cloudy
8:22 AM 37.4 °F - 35.6 °F 93% 30.43 in 10.0 mi Calm Calm - N/A   Scattered Clouds
8:55 AM 43.2 °F - 38.7 °F 84% 30.44 in 10.0 mi Calm Calm - N/A   Clear
9:55 AM 51.3 °F - 44.1 °F 76% 30.44 in 10.0 mi Calm Calm - N/A   Clear
10:55 AM 62.6 °F - 50.4 °F 64% 30.44 in 10.0 mi WSW 8.1 mph - N/A   Clear
11:55 AM 66.4 °F - 50.2 °F 56% 30.43 in 10.0 mi SW 11.5 mph - N/A   Clear
12:55 PM 68.2 °F - 49.5 °F 51% 30.40 in 9.0 mi SW 8.1 mph 18.4 mph N/A   Partly Cloudy
1:55 PM 69.3 °F - 48.4 °F 47% 30.37 in 10.0 mi South 9.2 mph - N/A   Scattered Clouds
2:55 PM 71.4 °F - 47.8 °F 43% 30.33 in 10.0 mi Variable 4.6 mph - N/A   Clear
3:55 PM 71.8 °F - 46.6 °F 41% 30.31 in 10.0 mi WSW 10.4 mph - N/A   Clear
4:55 PM 72.1 °F - 46.0 °F 39% 30.30 in 10.0 mi SW 11.5 mph - N/A   Clear
5:55 PM 70.5 °F - 46.4 °F 42% 30.28 in 10.0 mi SSW 6.9 mph - N/A   Clear
6:55 PM 69.4 °F - 48.4 °F 47% 30.28 in 10.0 mi SSW 8.1 mph - N/A   Partly Cloudy
7:55 PM 66.9 °F - 49.3 °F 53% 30.28 in 10.0 mi SSW 4.6 mph - N/A   Clear
8:55 PM 65.1 °F - 49.3 °F 56% 30.29 in 10.0 mi Variable 4.6 mph - N/A   Clear
9:55 PM 63.3 °F - 50.0 °F 62% 30.29 in 10.0 mi SSW 8.1 mph - N/A   Scattered Clouds
10:55 PM 61.9 °F - 50.5 °F 66% 30.28 in 10.0 mi SSW 9.2 mph - N/A   Scattered Clouds
11:55 PM 61.2 °F - 50.5 °F 68% 30.27 in 10.0 mi SSW 9.2 mph - N/A   Partly Cloudy